Home > Weather > Coffs Harbour > Past weeks

Flag for Australia Weather for the Past 2 Weeks in Coffs Harbour, New South Wales, Australia

Now
80 °F

Pleasantly warm.


Feels Like: 79 °F
Forecast: 67 / 78 °F
Wind: No wind

Location: Tamworth Airport AWS

Current Time: Apr 29, 2016 at 5:10:02 PM

Latest Report: Apr 29, 2016 at 4:00 PM


Visibility: N/A

Pressure: 30.07 "Hg

Humidity: 28%

Dew Point: 44 °F

Location of Coffs HarbourLocation

Historic Weather in Coffs Harbour — Graph

°F

Coffs Harbour Temperature Yesterday

Maximum temperature yesterday: 81 °F (at 3:00 PM)
Minimum temperature yesterday: 52 °F (at 6:00 AM)
Average temperature yesterday: 61 °F

High & Low Weather Summary for the Past Weeks

 TemperatureHumidityPressure
High84 °F (Apr 22, 1:00 PM)86% (Apr 26, 2:00 AM)30.37 "Hg (Apr 26, 2:00 AM)
Low49 °F (Apr 24, 1:00 AM)21% (Apr 17, 3:00 PM)29.98 "Hg (Apr 17, 4:00 PM)
Average63 °F60%30.18 "Hg
* Reported Apr 14 4:00 PM — Apr 29 4:00 PM, Coffs Harbour, Weather by CustomWeather, © 2016

Note: Actual official high and low records may vary slightly from our data, if they occured in-between our weather recording intervals... More about our weather records

Advertising

Coffs Harbour Weather History for the Previous 24 Hours

Scroll right to see more
 ConditionsComfort  
Time TempWeatherWind HumidityBarometerVisibility
4:00 PM
Fri, Apr 29
80 °FPleasantly warm.No wind28%30.07 "HgN/A
2:00 PM80 °FPleasantly warm.7 mph28%30.09 "HgN/A
11:00 AM78 °FPleasantly warm.7 mph36%30.19 "HgN/A
10:00 AM73 °FMild.N/A44%30.22 "HgN/A
9:00 AM67 °FMild.2 mph55%30.24 "HgN/A
7:00 AM51 °FCool.5 mph85%30.23 "HgN/A
6:00 AM50 °FCool.2 mph84%30.22 "HgN/A
5:00 AM54 °FCool.7 mph84%30.21 "HgN/A
4:00 AM52 °FCool.6 mph83%30.20 "HgN/A
3:00 AM56 °FCool.9 mph79%30.19 "HgN/A
2:00 AM54 °FCool.3 mph79%30.19 "HgN/A
1:00 AM58 °FCool.7 mph75%30.20 "HgN/A
12:00 AM58 °FCool.8 mph73%30.21 "HgN/A
11:00 PM
Thu, Apr 28
60 °FCool.8 mph69%30.21 "HgN/A
9:00 PM63 °FOvercast.9 mph47%30.19 "HgN/A
8:00 PM64 °FMild.7 mph41%30.18 "HgN/A
7:00 PM69 °FMild.9 mph32%30.17 "HgN/A
Weather by CustomWeather, © 2016

See weather overviewHow to use our weather pages